Weather History for Karaganda, Kazakhstan

Change the Weather History Date:

Tuesday, February 5, 2013

  Actual Average Record
Temperature  
Mean Temperature -2 °F -  
Max Temperature 12 °F - - ()
Min Temperature -16 °F - - ()
Degree Days  
Heating Degree Days 67    
Moisture  
Dew Point -3 °F    
Average Humidity 86    
Maximum Humidity 92    
Minimum Humidity 77    
Precipitation  
Precipitation 0.00 in - - ()
Sea Level Pressure  
Sea Level Pressure 30.38 in    
Wind  
Wind Speed 2 mph ()    
Max Wind Speed 7 mph    
Max Gust Speed -    
Visibility 5.0 miles    
Events Snow    
T = Trace of Precipitation, MM = Missing Value Source: Averaged Metar Reports

Daily Weather History Graph

Daily Weather History Graph

Search for Another Location

Airport:

Trip Planner

Search our weather history database for the weather conditions in past years. The results will help you decide how hot, cold, wet, or windy it might be!

Date:

Astronomy

Feb. 05, 2013 Rise Set
Actual Time 8:33 AM ALMT 6:08 PM ALMT
Civil Twilight 7:59 AM ALMT 6:42 PM ALMT
Nautical Twilight 7:21 AM ALMT 7:20 PM ALMT
Astronomical Twilight 6:43 AM ALMT 7:58 PM ALMT
Moon 3:55 AM ALMT (2/5) 12:50 PM ALMT (2/5)
Length of Visible Light 10h 43m
Length of Day
9h 35m
Waning Crescent, 31% of the Moon is Illuminated
Feb 5
Waning Crescent
Feb 10
New
Feb 18
First Quarter
Feb 26
Full
Mar 5
Last Quarter

Hourly Weather History & Observations

Time (ALMT) Temp. Windchill Dew Point Humidity Pressure Visibility Wind Dir Wind Speed Gust Speed Precip Events Conditions
12:00 AM -13.0 °F - -18.4 °F 77% 30.30 in 6.2 mi ENE 2.2 mph - N/A   Scattered Clouds
12:30 AM -14.8 °F - -20.2 °F 77% 30.30 in 6.2 mi East 2.2 mph - N/A   Scattered Clouds
1:00 AM -16.6 °F - -20.2 °F 84% 30.30 in 6.2 mi ESE 2.2 mph - N/A   Scattered Clouds
1:30 AM -14.8 °F - -18.4 °F 84% 30.30 in 6.2 mi Variable 2.2 mph - N/A   Scattered Clouds
2:00 AM -11.2 °F - -14.8 °F 84% 30.30 in 6.2 mi NE 2.2 mph - N/A   Scattered Clouds
2:30 AM -7.6 °F - -11.2 °F 84% 30.30 in 6.2 mi ENE 2.2 mph - N/A Snow Light Snow
3:00 AM -5.8 °F - -9.4 °F 84% 30.33 in 5.6 mi ESE 2.2 mph - N/A Snow Light Snow
3:30 AM -4.0 °F - -5.8 °F 92% 30.33 in 5.6 mi Calm Calm - N/A Snow Light Snow
4:00 AM -2.2 °F - -5.8 °F 85% 30.33 in 5.0 mi North 2.2 mph - N/A Snow Light Snow
4:30 AM -0.4 °F - -4.0 °F 85% 30.33 in 5.0 mi Calm Calm - N/A Snow Light Snow
5:00 AM 1.4 °F - -2.2 °F 85% 30.33 in 5.0 mi Calm Calm - N/A Snow Light Snow
5:30 AM 1.4 °F - -2.2 °F 85% 30.33 in 4.3 mi Calm Calm - N/A Snow Light Snow
6:00 AM 1.4 °F - -0.4 °F 92% 30.33 in 4.3 mi Calm Calm - N/A Snow Light Snow
6:30 AM 3.2 °F - -0.4 °F 85% 30.33 in 6.2 mi Calm Calm - N/A Snow Light Snow
7:00 AM 3.2 °F - -0.4 °F 85% 30.33 in 5.6 mi Calm Calm - N/A Snow Light Snow
7:30 AM 3.2 °F - -0.4 °F 85% 30.33 in 5.0 mi Calm Calm - N/A Snow Light Snow
8:00 AM 5.0 °F - 1.4 °F 85% 30.33 in 4.3 mi Calm Calm - N/A Snow Light Snow
8:30 AM 5.0 °F - 3.2 °F 92% 30.36 in 3.7 mi Calm Calm - N/A Snow Light Snow
9:00 AM 6.8 °F - 3.2 °F 85% 30.36 in 3.1 mi Calm Calm - N/A Snow Light Snow
9:30 AM 6.8 °F - 3.2 °F 85% 30.39 in 3.1 mi Variable 2.2 mph - N/A Snow Light Snow
10:00 AM 8.6 °F - 6.8 °F 92% 30.39 in 3.1 mi SW 2.2 mph - N/A Snow Light Snow
10:30 AM 8.6 °F 0.3 °F 6.8 °F 92% 30.39 in - SW 4.5 mph - N/A Snow Light Snow
11:00 AM 8.6 °F -2.4 °F 6.8 °F 92% 30.39 in 2.8 mi SW 6.7 mph - N/A Snow Light Snow
11:30 AM 10.4 °F 2.4 °F 6.8 °F 85% 30.39 in 3.1 mi WSW 4.5 mph - N/A Snow Light Snow
12:00 PM 10.4 °F 2.4 °F 6.8 °F 85% 30.39 in 4.3 mi WSW 4.5 mph - N/A Snow Light Snow
12:30 PM 10.4 °F 2.4 °F 8.6 °F 92% 30.39 in 5.0 mi WSW 4.5 mph - N/A Snow Light Snow
1:00 PM 12.2 °F 1.9 °F 8.6 °F 85% 30.39 in 5.0 mi West 6.7 mph - N/A Snow Light Snow
1:30 PM 12.2 °F 1.9 °F 8.6 °F 85% 30.39 in 3.7 mi West 6.7 mph - N/A Snow Light Snow
2:00 PM 12.2 °F 1.9 °F 8.6 °F 85% 30.39 in 6.2 mi West 6.7 mph - N/A Snow Light Snow
2:30 PM 10.4 °F -0.2 °F 6.8 °F 85% 30.39 in 6.2 mi WSW 6.7 mph - N/A   Scattered Clouds
3:00 PM 10.4 °F -0.2 °F 6.8 °F 85% 30.39 in 6.2 mi WSW 6.7 mph - N/A   Scattered Clouds
3:30 PM 8.6 °F -2.4 °F 5.0 °F 85% 30.39 in 6.2 mi SW 6.7 mph - N/A   Partly Cloudy
4:00 PM 6.8 °F -4.6 °F 1.4 °F 79% 30.39 in 3.1 mi SW 6.7 mph - N/A   Ice Crystals
4:30 PM 5.0 °F -6.7 °F -0.4 °F 78% 30.42 in 3.1 mi SW 6.7 mph - N/A   Ice Crystals
5:00 PM 5.0 °F -6.7 °F 1.4 °F 85% 30.39 in 6.2 mi SW 6.7 mph - N/A   Overcast
5:30 PM 6.8 °F -1.8 °F 3.2 °F 85% 30.42 in 2.5 mi SW 4.5 mph - N/A Snow Light Snow
6:00 PM 1.4 °F -11.0 °F -4.0 °F 78% 30.42 in 6.2 mi SW 6.7 mph - N/A   Scattered Clouds
6:30 PM -0.4 °F - -2.2 °F 92% 30.42 in 6.2 mi SSW 2.2 mph - N/A   Mostly Cloudy
7:00 PM -0.4 °F -10.2 °F -2.2 °F 92% 30.45 in 3.1 mi SW 4.5 mph - N/A   Ice Crystals
7:30 PM -0.4 °F - -4.0 °F 85% 30.45 in 3.1 mi Variable 2.2 mph - N/A   Ice Crystals
8:00 PM 1.4 °F - -0.4 °F 92% 30.48 in 3.7 mi SSW 2.2 mph - N/A   Scattered Clouds
8:30 PM -2.2 °F -12.2 °F -5.8 °F 85% 30.48 in 5.0 mi WSW 4.5 mph - N/A   Scattered Clouds
9:00 PM -4.0 °F - -7.6 °F 85% 30.48 in 6.2 mi East 2.2 mph - N/A   Scattered Clouds
9:30 PM -5.8 °F - -7.6 °F 92% 30.48 in 6.2 mi SW 2.2 mph - N/A   Scattered Clouds
10:00 PM -7.6 °F -18.5 °F -11.2 °F 84% 30.48 in 6.2 mi SW 4.5 mph - N/A   Scattered Clouds
10:30 PM -7.6 °F - -9.4 °F 92% 30.48 in 6.2 mi Calm Calm - N/A   Partly Cloudy
11:00 PM -13.0 °F - -16.6 °F 84% 30.48 in 6.2 mi Calm Calm - N/A   Partly Cloudy
11:30 PM -16.6 °F - -20.2 °F 84% 30.48 in 6.2 mi Variable 2.2 mph - N/A   Scattered Clouds